Regional Weather Roundup
Issued by NWS Goodland, KS

Home | Current Version | Previous Version | Graphics & Text | Print | Product List | Glossary On
Versions: 1 2 3 4 5 6 7 8 9 10 11 12 13 14 15 16 17 18 19 20 21 22 23 24 25 26 27 28 29 30 31 32 33 34 35 36 37 38 39 40 41 42 43 44 45 46 47 48 49 50
000
ASUS43 KGLD 041508
RWRGLD

GOODLAND FORECAST AREA HOURLY WEATHER ROUNDUP
NATIONAL WEATHER SERVICE GOODLAND KS
900 AM MDT MON MAY 04 2015

...OFFICIAL OBSERVATIONS...

CITY           SKY/WX    TMP DP  RH WIND       PRES   REMARKS
GOODLAND KS    CLOUDY    55  44  66 NE12      30.09F
HILL CITY KS   CLOUDY    59  50  72 NE12      30.05R
IMPERIAL NEB   CLOUDY    54  36  50 NE8       30.13R
MCCOOK NEB     CLOUDY    58  38  47 NE14      30.08R
AKRON CO       CLOUDY    50  40  68 E12       30.13R
BURLINGTON CO  CLOUDY    52  44  74 N12       30.10F
LIMON CO       LGT RAIN  52  45  77 E7        30.13S
$$

...UNOFFICIAL OBSERVATIONS...

CITY           SKY/WX    TMP DP  RH WIND       PRES   REMARKS
COLBY KS       PTSUNNY   57  48  72 NE12      30.08S
GOVE KS          N/A     58  32  37 MISG        N/A
LENORA KS        N/A     58  32  37 MISG        N/A
NORTON KS      PTSUNNY   57  39  51 NE15      30.04
SHARON SPRINGS   N/A     55  49  80 MISG        N/A
KIT CARSON CO    N/A     54  47  77 MISG        N/A
YUMA CO          N/A     50  40  67 E6          N/A
$$



USA.gov is the U.S. government's official web portal to all federal, state and local government web resources and services.